GSAT-16 (40332 NORAD) Tracking and Keplerian Element Data

This shows tracking and keplerian element data for the satellite.

Feedback or suggestion? Click here.




ElementValue
Catalog40332
NameGSAT-16
Epoch Orbit3711
Epoch Day34.81062531
Epoch Year2025
RAAN97.0057
Inclination0.0775
Eccentricity0.0002957
Argument of Perigee347.2651
Mean Anonmoly36.7727
Mean Motion1.00272487
Decay Rate8.9E-07
L11 40332U 14078A 25034.81062531 .00000089 00000+0 00000+0 0 9997
L22 40332 0.0775 97.0057 0002957 347.2651 36.7727 1.00272487 37117



Live tracking and technical data element details for GSAT-16 (NORAD 40332). GSAT-16 can be tracked NOW for your location showing map with azimuth and elevation plus other details from your city location.







IsCatalogInMostPopularTable: catalog: 40332, numindb: 616
Update: records affected: 1



GetName: 40332 GSAT-16

Hit Count: updated at: Fri, 16 May 2025 11:42:02 GMT